Flag for Austria Weather past 2 weeks in Mattersburg, Burgenland, Austria

Now
66 °F

Mild.


Feels Like: 66 °F
Forecast: 58 / 73 °F
Wind: 2 mph from West

Location: Eisenstadt

Current Time: Jul 10, 2014 at 7:23:52 PM

Latest Report: Jul 10, 2014 at 6:00 PM


Visibility: N/A

Pressure: 29.73 "Hg

Humidity: 56%

Dew point: 50 °F

Location of MattersburgLocation

Historic Weather in Mattersburg — Graph

°F

Mattersburg temperature yesterday

Maximum temperature yesterday: 69 °F (at 3:00 PM)
Minimum temperature yesterday: 59 °F (at 11:00 PM)
Average temperature yesterday: 64 °F

Past Weeks' High & Low Weather Summary

 TemperatureHumidityPressure
High86 °F (Jul 7, 5:00 PM)93% (Jul 2, 5:00 AM)30.25 "Hg (Jul 2, 5:00 AM)
Low53 °F (Jun 27, 5:00 AM)36% (Jul 4, 11:00 AM)29.58 "Hg (Jul 8, 7:00 PM)
Average68 °F65%29.93 "Hg
* Reported Jun 25 8:00 PM — Jul 10 6:00 PM, Mattersburg, Weather by CustomWeather, © 2014

Note: Actual official high and low records may vary slightly from our data, if they occured in-between our weather recording intervals... More about our weather records

Advertising

Mattersburg weather history for previous 24 hours

 ConditionsComfort  
Time TempWeatherWind HumidityBarometerVisibility
6:00 PM
Jul 10
66 °FMild.2 mph56%29.73 "HgN/A
5:00 PM66 °FOvercast.3 mph55%29.74 "Hg9 mi
4:00 PM66 °FMild.2 mph54%29.74 "HgN/A
3:00 PM67 °FSprinkles. Cloudy.1 mph59%29.75 "HgN/A
2:00 PM65 °FLight rain. Overcast.3 mph57%29.75 "Hg9 mi
1:00 PM66 °FMild.3 mph55%29.76 "HgN/A
12:00 PM67 °FMild.5 mph51%29.76 "HgN/A
11:00 AM66 °FPartly sunny.3 mph53%29.75 "Hg12 mi
10:00 AM64 °FMild.5 mph57%29.74 "HgN/A
9:00 AM64 °FMild.6 mph59%29.74 "HgN/A
8:00 AM61 °FPassing clouds.6 mph63%29.74 "Hg12 mi
7:00 AM58 °FPassing clouds.6 mph66%29.75 "Hg12 mi
6:00 AM56 °FPassing clouds.5 mph71%29.76 "Hg12 mi
5:00 AM55 °FCool.3 mph74%29.75 "HgN/A
4:00 AM56 °FPassing clouds.3 mph73%29.75 "Hg12 mi
3:00 AM57 °FCool.5 mph71%29.76 "HgN/A
2:00 AM55 °FPassing clouds.3 mph75%29.77 "Hg12 mi
1:00 AM57 °FCool.1 mph68%29.77 "HgN/A
12:00 AM58 °FCool.3 mph69%29.76 "HgN/A
11:00 PM
Jul 9
59 °FPassing clouds.3 mph68%29.77 "Hg12 mi
10:00 PM60 °FCool.5 mph67%29.77 "HgN/A
9:00 PM62 °FCool.5 mph62%29.75 "HgN/A
8:00 PM65 °FScattered clouds.7 mph58%29.74 "Hg12 mi
7:00 PM67 °FPartly sunny.6 mph53%29.72 "Hg12 mi
Weather by CustomWeather, © 2014

See weather overviewHow to use our weather pages